FW7743 Weather Reports


time (UTC)temp
C
wind
direction
speed
KPH
gust
KPH
rain 1hr
cm
rain 24hr
cm
rain mn
cm
humidity
%
barometer
mb
20260507000943 5 314 0.0 0.0 0.00 0.08 0.08 99 1011.7
20260507000439 5 317 0.0 0.0 0.00 0.08 0.08 99 1011.7
20260506235935 5 326 0.0 0.0 0.00 0.08 0.08 99 1011.6
20260506235432 5 307 0.0 0.0 0.00 0.08 0.08 99 1011.4
20260506234927 5 307 0.0 0.0 0.00 0.08 0.08 99 1011.6
20260506234426 5 307 0.0 0.0 0.00 0.08 0.08 99 1011.7
20260506233923 5 307 0.0 0.0 0.00 0.08 0.08 99 1011.3
20260506233419 5 307 0.0 0.0 0.00 0.08 0.08 99 1011.3
20260506232916 5 298 0.0 0.0 0.00 0.08 0.08 99 1011.2
20260506232412 5 297 0.0 0.0 0.00 0.08 0.08 99 1010.9
20260506231908 5 329 0.0 0.0 0.00 0.08 0.08 99 1010.7
20260506231406 5 352 0.0 0.0 0.00 0.08 0.08 99 1010.6
20260506230903 5 25 1.6 3.2 0.00 0.08 0.08 99 1010.5
20260506230359 5 345 1.6 3.2 0.00 0.08 0.08 99 1010.7
20260506225856 5 341 1.6 1.6 0.00 0.08 0.08 99 1010.5
20260506225353 5 351 0.0 0.0 0.00 0.08 0.08 99 1010.5
20260506224850 5 351 0.0 0.0 0.00 0.08 0.08 99 1010.6
20260506224348 5 347 0.0 0.0 0.00 0.08 0.08 99 1010.6
20260506223844 5 337 0.0 0.0 0.00 0.08 0.08 99 1011.1
20260506223339 5 301 0.0 0.0 0.00 0.08 0.08 99 1010.8
20260506222836 5 346 0.0 0.0 0.00 0.08 0.08 99 1010.8
20260506222332 6 334 0.0 0.0 0.00 0.08 0.08 99 1010.7
20260506221830 6 351 1.6 3.2 0.00 0.08 0.08 99 1010.7
20260506221327 5 23 1.6 3.2 0.00 0.08 0.08 99 1010.8
20260506220825 6 10 3.2 3.2 0.00 0.08 0.08 99 1010.7
20260506220320 5 359 3.2 3.2 0.00 0.08 0.08 99 1010.6
20260506215817 5 44 1.6 3.2 0.00 0.08 0.08 99 1010.5
20260506215313 6 4 0.0 0.0 0.00 0.08 0.08 99 1010.6
20260506214809 6 30 4.8 4.8 0.00 0.08 0.08 99 1010.6
20260506214306 6 14 1.6 1.6 0.00 0.08 0.08 99 1011.1
20260506213804 6 348 1.6 3.2 0.00 0.08 0.08 99 1010.4
20260506213300 5 34 4.8 4.8 0.00 0.08 0.08 99 1010.5
20260506212758 6 35 0.0 0.0 0.00 0.08 0.08 99 1010.5
20260506212254 6 26 1.6 1.6 0.00 0.08 0.08 99 1010.5
20260506211749 6 27 4.8 8.0 0.00 0.08 0.08 99 1010.3
20260506211245 6 335 1.6 3.2 0.00 0.08 0.08 99 1010.2
20260506210743 6 352 3.2 4.8 0.00 0.08 0.08 99 1010.3
20260506210239 6 38 1.6 3.2 0.00 0.08 0.08 99 1010.4
20260506205736 6 343 3.2 4.8 0.00 0.08 0.08 99 1010.2
20260506205232 6 17 6.4 9.7 0.00 0.08 0.08 99 1010.0
20260506204729 6 31 4.8 4.8 0.00 0.08 0.08 99 1010.1
20260506204226 6 5 4.8 9.7 0.00 0.08 0.08 99 1009.8
20260506203724 6 349 4.8 4.8 0.00 0.08 0.08 99 1009.8
20260506203215 6 38 4.8 4.8 0.00 0.08 0.08 99 1010.0
20260506202713 6 35 0.0 1.6 0.00 0.08 0.08 99 1009.8
20260506202209 6 350 1.6 3.2 0.00 0.08 0.08 99 1009.7
20260506201706 6 45 4.8 4.8 0.00 0.08 0.08 99 1009.5
20260506201203 6 3 3.2 3.2 0.00 0.08 0.08 99 1009.4
20260506200659 6 0 3.2 3.2 0.00 0.08 0.08 99 1009.5
20260506200156 6 11 3.2 3.2 0.00 0.08 0.08 99 1009.4
20260506195653 6 355 3.2 3.2 0.00 0.08 0.08 99 1009.5
20260506195149 6 355 3.2 3.2 0.00 0.08 0.08 99 1009.5
20260506194647 6 348 0.0 0.0 0.00 0.08 0.08 99 1009.3
20260506194143 6 60 3.2 4.8 0.00 0.08 0.08 99 1009.5
20260506193641 6 319 3.2 8.0 0.00 0.08 0.08 99 1009.4
20260506193138 6 15 1.6 3.2 0.00 0.08 0.08 99 1009.3
20260506192634 6 333 1.6 1.6 0.00 0.08 0.08 99 1009.1
20260506192130 6 340 6.4 9.7 0.00 0.08 0.08 99 1009.3
20260506191627 6 23 3.2 4.8 0.00 0.08 0.08 99 1009.2
20260506191123 6 343 4.8 4.8 0.00 0.08 0.08 99 1009.3
20260506190621 6 342 3.2 3.2 0.00 0.08 0.08 99 1009.3
20260506190118 6 45 3.2 3.2 0.00 0.08 0.08 99 1009.2
20260506185615 6 12 3.2 3.2 0.00 0.08 0.08 99 1009.3
20260506185111 7 31 4.8 8.0 0.00 0.08 0.08 99 1009.0
20260506184609 7 322 4.8 4.8 0.00 0.08 0.08 99 1009.2
20260506184106 7 323 1.6 4.8 0.00 0.08 0.08 99 1008.8
20260506183602 7 3 0.0 1.6 0.00 0.08 0.08 99 1008.8
20260506183058 7 46 1.6 3.2 0.00 0.08 0.08 99 1008.5
20260506182556 7 21 1.6 3.2 0.00 0.08 0.08 99 1008.8
20260506182053 7 356 0.0 1.6 0.00 0.08 0.08 99 1008.7
20260506181551 7 14 6.4 8.0 0.00 0.08 0.08 99 1008.8
20260506181047 7 13 1.6 1.6 0.00 0.08 0.08 99 1008.7
20260506180544 7 345 0.0 1.6 0.00 0.08 0.08 99 1008.5
20260506180041 6 337 4.8 4.8 0.00 0.08 0.08 99 1008.6
20260506175537 6 354 4.8 4.8 0.00 0.08 0.08 99 1008.6
20260506175033 6 339 1.6 3.2 0.00 0.08 0.08 99 1008.5
20260506174532 6 348 0.0 0.0 0.00 0.08 0.08 99 1008.4
20260506174028 6 336 4.8 8.0 0.00 0.08 0.08 99 1008.3
20260506173526 6 325 3.2 3.2 0.00 0.08 0.08 99 1008.3
20260506173022 6 1 3.2 3.2 0.00 0.08 0.08 99 1008.5
20260506172520 6 45 1.6 3.2 0.00 0.08 0.08 99 1008.4
20260506172016 6 339 0.0 0.0 0.13 0.08 0.08 99 1008.6
20260506171513 6 18 0.0 1.6 0.13 0.08 0.08 99 1008.6
20260506171010 6 346 0.0 1.6 0.13 0.08 0.08 99 1008.4
20260506170508 6 344 4.8 4.8 0.00 0.05 0.05 99 1008.4
20260506170000 6 22 1.6 1.6 0.00 0.05 0.05 99 1008.4
20260506165458 6 33 4.8 8.0 0.00 0.05 0.05 99 1008.3
20260506164954 6 3 3.2 4.8 0.00 0.05 0.05 99 1008.1
20260506164451 6 26 3.2 3.2 0.00 0.05 0.05 99 1008.4
20260506163948 6 6 0.0 0.0 0.00 0.05 0.05 99 1008.5
20260506163443 6 35 3.2 4.8 0.00 0.05 0.05 99 1008.6
20260506162938 6 17 4.8 4.8 0.00 0.05 0.05 99 1008.6
20260506162436 6 32 3.2 4.8 0.00 0.05 0.05 99 1008.3
20260506161928 6 357 1.6 1.6 0.00 0.05 0.05 99 1008.5
20260506161426 6 34 4.8 8.0 0.00 0.05 0.05 99 1008.3
20260506160923 6 25 4.8 4.8 0.00 0.05 0.05 99 1008.6
20260506160420 6 351 1.6 3.2 0.00 0.05 0.05 99 1008.6
20260506155917 6 5 1.6 1.6 0.00 0.05 0.05 99 1008.4
20260506155414 6 22 1.6 1.6 0.00 0.05 0.05 99 1008.6
20260506153537 6 24 3.2 4.8 0.00 0.05 0.05 99 1008.6
20260506153034 6 31 3.2 3.2 0.00 0.05 0.05 99 1008.6
20260506152531 6 340 0.0 1.6 0.00 0.05 0.05 99 1008.7
20260506152029 6 340 1.6 1.6 0.00 0.05 0.05 99 1008.5
20260506151527 6 0 0.0 1.6 0.00 0.05 0.05 99 1008.1
20260506151024 6 350 1.6 3.2 0.00 0.05 0.05 99 1008.3
20260506150520 6 32 3.2 3.2 0.00 0.05 0.05 99 1008.1
20260506150017 6 31 0.0 1.6 0.00 0.05 0.05 99 1008.3
20260506145514 6 346 1.6 1.6 0.00 0.05 0.05 99 1008.5
20260506145011 5 339 4.8 4.8 0.00 0.05 0.05 99 1008.5
20260506144508 6 13 1.6 1.6 0.00 0.05 0.05 99 1008.4
20260506144005 6 44 6.4 9.7 0.00 0.05 0.05 99 1008.4
20260506143502 6 41 3.2 3.2 0.00 0.05 0.05 99 1008.4
20260506143001 6 34 1.6 3.2 0.00 0.05 0.05 99 1008.4
20260506142458 6 22 4.8 4.8 0.00 0.05 0.05 99 1008.4
20260506141956 6 36 8.0 11.3 0.18 0.05 0.05 99 1008.1
20260506141454 6 350 1.6 1.6 0.18 0.05 0.05 99 1008.5
20260506140952 6 14 1.6 3.2 0.00 0.03 0.03 99 1008.3
20260506140449 6 340 3.2 3.2 0.00 0.03 0.03 99 1008.5
20260506135945 6 349 3.2 4.8 0.00 0.03 0.03 99 1008.4
20260506135443 6 350 1.6 1.6 0.00 0.03 0.03 99 1008.6
20260506134938 6 350 1.6 4.8 0.00 0.03 0.03 99 1008.6
20260506134435 6 346 3.2 4.8 0.00 0.03 0.03 99 1008.4
20260506133932 6 344 3.2 3.2 0.00 0.03 0.03 99 1008.6
20260506133429 6 349 0.0 0.0 0.00 0.03 0.03 99 1008.5
20260506132926 6 350 1.6 3.2 0.00 0.03 0.03 99 1008.6
20260506132423 6 344 3.2 3.2 0.00 0.03 0.03 99 1008.6
20260506131920 6 351 1.6 1.6 0.00 0.03 0.03 99 1008.7
20260506131416 6 330 0.0 1.6 0.00 0.03 0.03 99 1008.6
20260506130914 6 2 0.0 1.6 0.00 0.03 0.03 99 1008.7
20260506130410 6 344 0.0 0.0 0.00 0.03 0.03 99 1008.5
20260506125908 6 357 1.6 1.6 0.00 0.03 0.03 99 1008.5
20260506125406 6 350 4.8 8.0 0.00 0.03 0.03 99 1008.6
20260506124904 6 333 1.6 3.2 0.00 0.03 0.03 99 1008.5
20260506124401 6 342 3.2 3.2 0.00 0.03 0.03 99 1008.6
20260506123859 6 349 4.8 4.8 0.00 0.03 0.03 99 1008.6
20260506123357 6 359 0.0 0.0 0.00 0.03 0.03 99 1008.4
20260506122854 6 14 0.0 0.0 0.00 0.03 0.03 99 1008.5
20260506122350 6 351 1.6 1.6 0.00 0.03 0.03 99 1008.3
20260506121849 6 355 0.0 0.0 0.13 0.03 0.03 99 1008.5
20260506121346 6 341 3.2 3.2 0.13 0.03 0.03 99 1008.6
20260506120842 5 352 1.6 3.2 0.00 0.00 0.00 99 1008.8
20260506120340 6 343 6.4 8.0 0.00 0.00 0.00 99 1008.7
20260506115837 5 348 4.8 4.8 0.00 0.00 0.00 99 1008.1
20260506115336 5 345 1.6 3.2 0.00 0.00 0.00 99 1008.7
20260506114833 5 319 3.2 3.2 0.00 0.00 0.00 99 1008.3
20260506114331 5 4 3.2 3.2 0.00 0.00 0.00 99 1008.5
20260506113829 6 335 11.3 12.9 0.00 0.00 0.00 99 1008.6
20260506113326 5 329 8.0 9.7 0.00 0.00 0.00 99 1008.4
20260506112823 5 341 9.7 11.3 0.00 0.00 0.00 99 1008.7
20260506112320 5 330 3.2 4.8 0.00 0.00 0.00 99 1008.3
20260506111818 5 343 1.6 3.2 0.00 0.00 0.00 99 1008.4
20260506111316 5 331 3.2 3.2 0.00 0.00 0.00 99 1008.6
20260506110813 6 343 3.2 4.8 0.00 0.00 0.00 99 1008.7
20260506110310 5 355 1.6 1.6 0.00 0.00 0.00 99 1008.8
20260506105806 5 344 0.0 0.0 0.00 0.00 0.00 99 1009.0
20260506105305 5 345 3.2 3.2 0.00 0.00 0.00 99 1008.8
20260506104801 5 320 0.0 0.0 0.00 0.00 0.00 99 1008.9
20260506104258 5 353 3.2 4.8 0.00 0.00 0.00 99 1008.7
20260506103756 5 346 4.8 4.8 0.00 0.00 0.00 99 1008.8
20260506103253 5 340 3.2 3.2 0.00 0.00 0.00 99 1008.8
20260506102750 5 331 4.8 4.8 0.00 0.00 0.00 99 1008.8
20260506102248 5 338 3.2 3.2 0.00 0.00 0.00 99 1008.7
20260506101745 5 350 4.8 4.8 0.00 0.00 0.00 99 1008.8
20260506101241 6 336 6.4 8.0 0.00 0.00 0.00 99 1008.6
20260506100739 6 346 4.8 8.0 0.00 0.00 0.00 99 1008.7
20260506100237 6 347 4.8 4.8 0.00 0.00 0.00 99 1009.1
20260506095736 6 31 4.8 8.0 0.00 0.00 0.00 99 1009.1
20260506095232 6 0 11.3 11.3 0.00 0.00 0.00 99 1008.9
20260506094729 6 16 3.2 3.2 0.00 0.00 0.00 99 1009.2
20260506094227 7 54 1.6 3.2 0.00 0.00 0.00 99 1008.9
20260506093726 7 14 0.0 1.6 0.00 0.00 0.00 99 1008.9
20260506093222 7 320 9.7 11.3 0.00 0.00 0.00 99 1009.1
20260506092720 7 340 0.0 1.6 0.00 0.00 0.00 99 1009.1
20260506092217 7 32 1.6 3.2 0.00 0.00 0.00 99 1009.1
20260506091715 7 357 4.8 4.8 0.00 0.00 0.00 99 1009.5
20260506091212 7 345 4.8 4.8 0.00 0.00 0.00 99 1009.1
20260506090710 7 348 11.3 14.5 0.00 0.00 0.00 99 1009.0
20260506090206 7 341 9.7 9.7 0.00 0.00 0.00 99 1009.0
20260506085704 7 28 4.8 8.0 0.00 0.00 0.00 99 1009.0
20260506085159 7 340 4.8 4.8 0.00 0.00 0.00 99 1008.9
20260506084656 7 352 8.0 9.7 0.00 0.00 0.00 99 1009.1
20260506084153 7 0 3.2 3.2 0.00 0.00 0.00 99 1009.2
20260506083650 7 17 6.4 8.0 0.00 0.00 0.00 99 1009.1
20260506083148 7 356 4.8 4.8 0.00 0.00 0.00 99 1009.1
20260506082644 7 342 4.8 4.8 0.00 0.00 0.00 99 1009.1
20260506082139 7 358 0.0 0.0 0.00 0.00 0.00 99 1008.8
20260506081638 7 357 1.6 1.6 0.00 0.00 0.00 99 1008.9
20260506081135 7 353 3.2 3.2 0.00 0.00 0.00 99 1009.1
20260506080633 7 350 1.6 3.2 0.00 0.00 0.00 99 1008.9
20260506080129 7 338 1.6 3.2 0.00 0.00 0.00 99 1008.7
20260506073113 7 11 1.6 1.6 0.00 0.00 0.00 99 1008.5
20260506072609 7 43 0.0 0.0 0.00 0.00 0.00 99 1008.8
20260506072108 8 35 6.4 9.7 0.00 0.00 0.00 99 1008.8
20260506071605 7 343 0.0 0.0 0.00 0.00 0.00 99 1008.9
20260506071102 7 180 0.0 0.0 0.00 0.00 0.00 99 1008.9
20260506070559 7 136 0.0 0.0 0.00 0.00 0.00 99 1008.8
20260506062033 7 222 0.0 0.0 0.00 0.00 0.00 99 1009.3
20260506061529 7 336 4.8 4.8 0.00 0.00 0.00 99 1009.9
20260506061027 8 49 4.8 8.0 0.00 0.00 0.00 99 1010.9
20260506060526 8 310 0.0 0.0 0.00 0.00 0.00 99 1010.0
20260506050954 7 335 0.0 0.0 0.00 0.00 0.00 99 1011.1
20260506050452 7 346 0.0 0.0 0.00 0.00 0.00 99 1010.9
20260506044942 7 347 0.0 3.2 0.00 0.00 0.00 98 1011.1
20260506044441 7 352 1.6 1.6 0.00 0.00 0.00 98 1010.6
20260506043937 7 15 0.0 0.0 0.00 0.00 0.00 98 1010.5
20260506043434 8 17 1.6 1.6 0.00 0.00 0.00 98 1010.7
20260506042932 8 344 3.2 3.2 0.00 0.00 0.00 98 1010.7
20260506042431 8 341 0.0 0.0 0.00 0.00 0.00 98 1010.5
20260506041929 8 35 3.2 3.2 0.00 0.00 0.00 98 1010.4
20260506041426 8 337 0.0 0.0 0.00 0.00 0.00 98 1010.5
20260506040923 8 335 1.6 3.2 0.00 0.00 0.00 98 1010.5
20260506040421 8 326 0.0 0.0 0.00 0.00 0.00 98 1010.6
20260506035917 7 323 0.0 0.0 0.00 0.03 0.03 98 1010.9
20260506035415 7 322 1.6 1.6 0.00 0.03 0.03 98 1010.9
20260506034911 7 346 1.6 1.6 0.00 0.03 0.03 98 1010.8
20260506034408 7 336 0.0 0.0 0.00 0.03 0.03 98 1010.7
20260506033905 7 336 1.6 1.6 0.00 0.03 0.03 98 1011.1
20260506033403 7 65 0.0 0.0 0.00 0.03 0.03 97 1011.2
20260506032859 7 44 0.0 0.0 0.00 0.03 0.03 97 1010.8
20260506032356 7 359 0.0 0.0 0.00 0.03 0.03 97 1010.8
20260506031853 7 334 0.0 0.0 0.00 0.03 0.03 97 1011.6
20260506031350 7 335 4.8 4.8 0.00 0.03 0.03 97 1011.4
20260506030848 7 332 0.0 0.0 0.00 0.03 0.03 97 1011.7
20260506030346 7 5 0.0 0.0 0.00 0.03 0.03 97 1011.5
20260506025842 7 322 1.6 1.6 0.00 0.03 0.03 97 1010.9
20260506025338 7 350 3.2 3.2 0.00 0.03 0.03 96 1011.6
20260506024836 8 0 1.6 1.6 0.00 0.03 0.03 96 1011.3
20260506024333 8 47 3.2 3.2 0.00 0.03 0.03 96 1011.4
20260506023829 8 336 0.0 0.0 0.00 0.03 0.03 96 1011.5
20260506023326 8 34 1.6 3.2 0.00 0.03 0.03 95 1011.3
20260506022822 8 325 1.6 3.2 0.00 0.03 0.03 95 1011.1
20260506022320 8 167 0.0 1.6 0.00 0.03 0.03 94 1011.8
20260506021818 8 31 6.4 9.7 0.00 0.03 0.03 94 1011.3
20260506021315 8 0 4.8 8.0 0.00 0.03 0.03 93 1011.2
20260506020811 8 32 3.2 4.8 0.00 0.03 0.03 92 1011.2
20260506020309 8 342 8.0 11.3 0.00 0.03 0.03 92 1011.1
20260506015807 8 351 4.8 4.8 0.00 0.03 0.03 91 1010.9
20260506015306 8 343 3.2 4.8 0.00 0.03 0.03 90 1010.6
20260506014801 9 28 1.6 3.2 0.00 0.03 0.03 89 1010.6
20260506014257 10 345 0.0 1.6 0.00 0.03 0.03 88 1010.7
20260506013754 10 357 4.8 8.0 0.00 0.03 0.03 87 1010.7
20260506013252 10 339 8.0 11.3 0.00 0.03 0.03 86 1010.6
20260506012748 10 353 8.0 11.3 0.00 0.03 0.03 86 1010.7
20260506012245 10 344 11.3 14.5 0.00 0.03 0.03 86 1010.3
20260506011742 10 338 6.4 9.7 0.00 0.03 0.03 85 1010.5
20260506011238 10 321 6.4 8.0 0.00 0.03 0.03 85 1010.3
20260506010737 11 347 6.4 8.0 0.00 0.03 0.03 86 1010.4
20260506010234 11 346 6.4 8.0 0.00 0.03 0.03 86 1010.5
20260506005731 11 330 1.6 3.2 0.00 0.03 0.03 87 1010.3
20260506005228 11 294 1.6 1.6 0.00 0.03 0.03 86 1010.8
20260506004724 11 349 3.2 3.2 0.00 0.03 0.03 86 1010.7
20260506004221 11 314 4.8 9.7 0.00 0.03 0.03 86 1010.6
20260506003717 11 318 1.6 1.6 0.00 0.03 0.03 89 1010.5
20260506003214 11 344 6.4 8.0 0.00 0.03 0.03 89 1009.9
20260506002710 11 319 1.6 1.6 0.00 0.03 0.03 89 1009.9
20260506002206 11 328 4.8 9.7 0.00 0.03 0.03 91 1010.2
20260506001702 11 336 3.2 3.2 0.00 0.03 0.03 92 1010.0